Location: Marcé
(47.5801°N, 0.3280°W)
Time: 22:11:28
(UTC+01:00)

Tiangong - Pass Details

Date: 28 October 2021
Orbit: 379 x 384 km, 41.5° (Epoch: 06 December)

Event Time Altitude Azimuth Distance (km) Brightness Sun altitude
Rises 19:38:08 0° 262° (W) 2,274 7.5 -8.7°
Reaches altitude 10° 19:40:36 10° 243° (WSW) 1,417 5.3 -9.1°
Maximum altitude 19:42:56 19° 197° (SSW) 1,013 3.5 -9.5°
Drops below altitude 10° 19:45:14 10° 150° (SSE) 1,411 3.7 -9.9°
Enters shadow 19:46:50 - 136° (SE) 1,941 4.3 -10.1°
